TimeEST,TemperatureF,Dew PointF,Humidity,Sea Level PressureIn,VisibilityMPH,Wind Direction,Wind SpeedMPH,Gust SpeedMPH,PrecipitationIn,Events,Conditions,WindDirDegrees,DateUTC
12:53 AM,69.1,66.0,90,30.05,10.0,South,5.8,-,N/A,,Clear,190,2013-01-17 05:53:00
1:53 AM,68.0,66.0,93,30.05,10.0,SW,4.6,-,N/A,,Clear,230,2013-01-17 06:53:00
2:53 AM,66.9,64.9,93,30.04,10.0,South,4.6,-,N/A,,Clear,180,2013-01-17 07:53:00
3:53 AM,64.9,64.0,97,30.04,10.0,Calm,Calm,-,N/A,,Mostly Cloudy,0,2013-01-17 08:53:00
4:53 AM,66.9,64.9,93,30.04,10.0,Calm,Calm,-,N/A,,Overcast,0,2013-01-17 09:53:00
5:53 AM,66.9,66.0,97,30.04,10.0,Calm,Calm,-,N/A,,Overcast,0,2013-01-17 10:53:00
6:53 AM,68.0,66.0,93,30.06,10.0,SSW,3.5,-,N/A,,Overcast,200,2013-01-17 11:53:00
7:53 AM,69.1,66.9,93,30.07,10.0,South,5.8,-,N/A,,Overcast,190,2013-01-17 12:53:00
8:53 AM,70.0,66.9,90,30.08,10.0,South,4.6,-,N/A,,Mostly Cloudy,190,2013-01-17 13:53:00
9:53 AM,75.9,68.0,76,30.09,10.0,South,12.7,-,N/A,,Clear,180,2013-01-17 14:53:00
10:25 AM,77.0,68.0,74,30.08,10.0,SSW,11.5,18.4,N/A,,Mostly Cloudy,210,2013-01-17 15:25:00
10:50 AM,78.8,66.2,65,30.06,10.0,SSW,15.0,23.0,N/A,,Scattered Clouds,200,2013-01-17 15:50:00
10:53 AM,78.1,66.9,68,30.06,10.0,SSW,12.7,23.0,N/A,,Scattered Clouds,210,2013-01-17 15:53:00
11:53 AM,80.1,66.9,64,30.03,10.0,SSW,13.8,19.6,N/A,,Mostly Cloudy,210,2013-01-17 16:53:00
12:53 PM,82.0,64.0,54,29.99,10.0,SSW,15.0,24.2,N/A,,Clear,210,2013-01-17 17:53:00
1:53 PM,81.0,64.0,56,29.96,10.0,SSW,13.8,25.3,N/A,,Scattered Clouds,200,2013-01-17 18:53:00
2:53 PM,81.0,64.0,56,29.94,10.0,SW,11.5,-,N/A,,Scattered Clouds,220,2013-01-17 19:53:00
3:53 PM,81.0,64.0,56,29.95,10.0,WSW,12.7,-,N/A,,Mostly Cloudy,250,2013-01-17 20:53:00
4:18 PM,75.2,64.4,69,29.97,10.0,WNW,20.7,27.6,N/A,,Overcast,290,2013-01-17 21:18:00
4:53 PM,71.1,62.1,73,29.99,10.0,WNW,24.2,32.2,N/A,,Scattered Clouds,290,2013-01-17 21:53:00
5:23 PM,66.2,60.8,83,30.02,10.0,WNW,19.6,28.8,N/A,,Overcast,290,2013-01-17 22:23:00
5:53 PM,64.0,57.0,78,30.04,10.0,WNW,20.7,25.3,N/A,,Overcast,290,2013-01-17 22:53:00
6:41 PM,62.6,53.6,72,30.06,10.0,West,18.4,26.5,N/A,,Partly Cloudy,280,2013-01-17 23:41:00
6:53 PM,62.1,54.0,75,30.06,10.0,WNW,17.3,-,N/A,,Partly Cloudy,290,2013-01-17 23:53:00
7:53 PM,61.0,53.1,75,30.07,10.0,WNW,13.8,-,N/A,,Clear,290,2013-01-18 00:53:00
8:53 PM,60.1,52.0,75,30.08,10.0,West,12.7,-,N/A,,Clear,280,2013-01-18 01:53:00
9:53 PM,59.0,50.0,72,30.09,10.0,WNW,11.5,-,N/A,,Partly Cloudy,290,2013-01-18 02:53:00
10:53 PM,57.9,48.0,70,30.10,10.0,WNW,10.4,-,N/A,,Scattered Clouds,290,2013-01-18 03:53:00
11:53 PM,55.9,46.9,72,30.10,10.0,WNW,9.2,-,N/A,,Clear,290,2013-01-18 04:53:00